Location: Table Mountain
(47.2500°N, 120.5778°W)
Time: 16:28:03
(UTC-07:00)

Vanguard 1 - All Passes

Search period start: 14 August 2018 00:00
Search period end: 24 August 2018 00:00
Orbit: 650 x 3833 km, 34.2° (Epoch: 13 August)

Date Brightness Start Highest point End Pass type
(mag) Time Alt. Az. Time Alt. Az. Time Alt. Az.
14 Aug - 12:39:55 10° SSE 12:51:01 16° SE 13:01:36 10° ESE daylight
14 Aug - 14:53:59 10° SSW 15:13:46 37° SSE 15:29:26 10° E daylight
14 Aug - 17:16:41 10° WSW 17:37:37 51° S 17:51:05 10° ESE daylight
14 Aug - 19:43:03 10° W 20:00:17 45° SSW 20:10:20 10° SE daylight
14 Aug - 22:11:06 10° W 22:20:05 20° SW 22:26:21 10° S visible
15 Aug - 12:56:45 10° S 13:11:27 21° SE 13:25:15 10° E daylight
15 Aug - 15:13:54 10° SW 15:34:39 42° SSE 15:50:43 10° E daylight
15 Aug - 17:37:41 10° WSW 17:58:37 52° S 18:11:52 10° ESE daylight
15 Aug - 20:04:29 10° W 20:20:55 41° SSW 20:30:40 10° SE daylight
15 Aug - 22:33:45 10° W 22:40:09 15° SW 22:45:06 10° SSW visible
16 Aug - 13:14:59 10° S 13:31:58 27° SE 13:47:44 10° E daylight
16 Aug - 15:34:10 10° SW 15:55:36 47° SSE 16:11:49 10° E daylight
16 Aug - 17:58:49 10° WSW 18:19:36 53° S 18:32:35 10° ESE daylight
16 Aug - 20:26:02 10° W 20:41:26 36° SSW 20:50:50 10° SSE visible
17 Aug - 11:26:50 10° SE 11:30:44 11° SE 11:34:42 10° ESE daylight
17 Aug - 13:33:59 10° SSW 13:52:35 33° SE 14:09:37 10° E daylight
17 Aug - 15:54:43 10° SW 16:16:37 51° SSE 16:32:49 10° E daylight
17 Aug - 18:20:04 10° WSW 18:40:30 51° SSW 18:53:11 10° ESE daylight
17 Aug - 20:47:44 10° W 21:01:47 30° SW 21:10:45 10° SSE visible
18 Aug - 11:39:50 10° SSE 11:50:55 16° SE 12:02:16 10° E daylight
18 Aug - 13:53:32 10° SSW 14:13:17 39° SSE 14:31:09 10° E daylight
18 Aug - 16:15:28 10° WSW 16:37:40 54° S 16:53:44 10° ESE daylight
18 Aug - 18:41:25 10° W 19:01:20 48° SSW 19:13:42 10° SE daylight
18 Aug - 21:09:42 10° W 21:22:01 25° SW 21:30:19 10° S visible
19 Aug - 11:56:56 10° S 12:11:10 22° SE 12:25:55 10° E daylight
19 Aug - 14:13:28 10° SW 14:34:07 44° SSE 14:52:28 10° E daylight
19 Aug - 16:36:26 10° WSW 16:58:44 55° S 17:14:35 10° ESE daylight
19 Aug - 19:02:51 10° W 19:22:03 44° SSW 19:34:05 10° SE daylight
19 Aug - 21:32:07 10° W 21:42:05 19° SW 21:49:19 10° S visible
20 Aug - 12:15:17 10° S 12:31:30 28° SE 12:48:27 10° E daylight
20 Aug - 14:33:44 10° SW 14:55:01 49° SSE 15:13:40 10° E daylight
20 Aug - 16:57:31 10° WSW 17:19:46 55° S 17:35:21 10° ESE daylight
20 Aug - 19:24:23 10° W 19:42:38 40° SSW 19:54:16 10° SSE daylight
20 Aug - 21:55:36 10° W 22:02:01 14° SW 22:07:15 10° SSW visible
21 Aug - 10:28:47 10° SE 10:30:53 10° ESE 10:33:00 10° ESE daylight
21 Aug - 12:34:23 10° SSW 12:51:58 34° SE 13:10:23 10° E daylight
21 Aug - 14:54:15 10° SW 15:16:01 53° SSE 15:34:44 10° E daylight
21 Aug - 17:18:44 10° W 17:40:45 54° S 17:56:01 10° ESE daylight
21 Aug - 19:46:04 10° W 20:03:03 34° SW 20:14:12 10° SSE daylight
22 Aug - 10:40:54 10° SSE 10:50:51 16° SE 11:01:47 10° E daylight
22 Aug - 12:53:58 10° SSW 13:12:34 39° SSE 13:32:01 10° E daylight
22 Aug - 15:14:59 10° WSW 15:37:05 55° S 15:55:44 10° ESE daylight
22 Aug - 17:40:01 10° W 18:01:39 51° SSW 18:16:34 10° SE daylight
22 Aug - 20:07:58 10° W 20:23:19 28° SW 20:33:49 10° S visible
23 Aug - 10:58:04 10° S 11:10:56 21° SE 11:25:35 10° E daylight
23 Aug - 13:13:55 10° SW 13:33:17 45° SSE 13:53:25 10° E daylight
23 Aug - 15:35:52 10° WSW 15:58:11 57° S 16:16:39 10° ESE daylight
23 Aug - 18:01:24 10° W 18:22:27 47° SSW 18:36:59 10° SE daylight
23 Aug - 20:30:17 10° W 20:43:25 23° SW 20:52:56 10° S visible
